Regional Weather Roundup
Issued by NWS

Home | Current Version | Previous Version | Graphics & Text | Print | Product List | Glossary On
Versions: 1 2 3 4 5 6 7 8 9 10 11 12 13 14 15 16 17 18 19 20 21 22 23 24 25 26 27 28 29 30 31 32 33 34 35 36 37 38 39 40 41 42 43 44 45 46 47 48 49 50
725
ASUS44 KLIX 262105
RWRLA
LOUISIANA WEATHER ROUNDUP
NATIONAL WEATHER SERVICE NEW ORLEANS LA
300 PM CST WED NOV 26 2014

NOTE: "FAIR" INDICATES FEW OR NO CLOUDS BELOW 12,000 FEET WITH NO
      SIGNIFICANT WEATHER AND/OR OBSTRUCTIONS TO VISIBILITY.
      SKY/WX - SKY CONDITION AND SIGNIFICANT WEATHER.
      TMP - AIR TEMPERATURE.    DP   - DEWPOINT TEMPERATURE.
      RH  - RELATIVE HUMIDITY.  PRES - PRESSURE.
      HX  - HEAT INDEX.         WCI  - WIND CHILL INDEX.

*  THESE STATIONS ARE NOT NWS OR FAA STATIONS AND ARE NOT UNDER
   NWS QUALITY CONTROL.

LAZ040-048-061>063-065-066-069-262200-
SOUTHEAST LOUISIANA

CITY           SKY/WX    TMP DP  RH WIND       PRES   REMARKS
N.O. AUDUBON     N/A     68  39  35 MISG        N/A
N.O. INTL ARPT MOSUNNY   69  35  28 SW15G22   30.18F
N.O. LAKEFRONT SUNNY     66  39  37 W20       30.18F
N.O. DOWNTOWN* FAIR      68  36  30 W7        30.19F
SLIDELL        SUNNY     65  34  31 S12       30.17F
BATON ROUGE    SUNNY     70  34  26 W17G25    30.15S
BOOTHVILLE     SUNNY     61  45  55 SW10      30.23S
BELLE CHASSE   SUNNY     68  33  27 SW14G21   30.18F
BOGALUSA*        N/A     66  34  30 S9        30.16S
NEW ROADS*     FAIR      68  37  31 SW17      30.15S
GONZALES*      FAIR      69  37  30 W10G20    30.16F
HAMMOND*       SUNNY     70  32  24 SW14G21   30.16F
HOUMA*         NOT AVBL
PORT FOURCHON* CLEAR     64  37  36 W10G16    30.26S

$$

LAZ041-044-053-054-262200-
SOUTHWEST LOUISIANA

CITY           SKY/WX    TMP DP  RH WIND       PRES   REMARKS
LAKE CHARLES   SUNNY     69  46  43 SW13G23   30.17S
LAFAYETTE      SUNNY     69  37  30 SW17G29   30.17S
PATTERSON      SUNNY     68  43  40 W18G24    30.22S
SALT POINT       N/A     68  53  58 VRB3      30.20F
NEW IBERIA     SUNNY     69  37  30 SW17G24   30.18F
CHENAULT AIRPK SUNNY     70  37  30 SW14G24   30.17

$$

LAZ027-028-262200-
CENTRAL LOUISIANA

CITY           SKY/WX    TMP DP  RH WIND       PRES   REMARKS
FORT POLK      SUNNY     68  36  30 W13G21    30.13R
ALEXANDRIA INT SUNNY     68  39  34 SW18G25   30.12R
ALEXANDRIA     SUNNY     70  36  28 SW17G30   30.12R

$$

LAZ001-002-262200-
NORTHWEST LOUISIANA

CITY           SKY/WX    TMP DP  RH WIND       PRES   REMARKS
SHREVEPORT     MOSUNNY   67  29  24 W16       30.11R
BARKSDALE AFB  SUNNY     67  30  24 W9        30.11R
DTN SHREVEPORT SUNNY     67  28  23 W13       30.11R

$$

LAZ014-016-262200-
NORTHEAST LOUISIANA

CITY           SKY/WX    TMP DP  RH WIND       PRES   REMARKS
MONROE         SUNNY     69  34  27 W22       30.07R
TALLULAH       SUNNY     68  37  32 SW12G23   30.06F

$$




USA.gov is the U.S. government's official web portal to all federal, state and local government web resources and services.